Nantucket, MA

2:49 PM EDT on October 21, 2017 (GMT -0400)
Nantucket Memorial

Weather History for KACK - April, 2013

Change the Weather History Date:

Friday, April 12, 2013

  Actual Average Record
Temperature  
Mean Temperature 46 °F -  
Max Temperature 53 °F 50 °F 72 °F (1977)
Min Temperature 39 °F 32 °F 24 °F (1976)
Degree Days  
Heating Degree Days 19    
Moisture  
Dew Point 41 °F    
Average Humidity 85    
Maximum Humidity 100    
Minimum Humidity 58    
Precipitation  
Precipitation 1.35 in - - ()
Sea Level Pressure  
Sea Level Pressure 29.84 in    
Wind  
Wind Speed 14 mph (East)    
Max Wind Speed 30 mph    
Max Gust Speed 41 mph    
Visibility 4 miles    
Events Fog , Rain    
Averages and records for this station are not official NWS values.
T = Trace of Precipitation, MM = Missing Value Source: NWS Daily Summary

Daily Weather History Graph

Daily Weather History Graph

Search for Another Location

Airport or City:

Trip Planner

Search our weather history database for the weather conditions in past years. The results will help you decide how hot, cold, wet, or windy it might be!

Date:

Astronomy

Apr. 12, 2013 Rise Set
Actual Time 6:05 AM EDT 7:17 PM EDT
Civil Twilight 5:36 AM EDT 7:45 PM EDT
Nautical Twilight 5:02 AM EDT 8:20 PM EDT
Astronomical Twilight 4:27 AM EDT 8:55 PM EDT
Moon 7:11 AM EDT (4/12) 9:46 PM EDT (4/12)
Length of Visible Light 14h 09m
Length of Day
13h 12m
Waxing Crescent, 5% of the Moon is Illuminated
Apr 12
Waxing Crescent
Apr 18
First Quarter
Apr 25
Full
May 2
Last Quarter
May 9
New

Hourly Weather History & Observations

Time (EDT) Temp. Windchill Dew Point Humidity Pressure Visibility Wind Dir Wind Speed Gust Speed Precip Events Conditions
12:53 AM 44.1 °F 40.1 °F 34.0 °F 68% 30.13 in 10.0 mi East 6.9 mph - N/A   Overcast
1:53 AM 44.1 °F 39.5 °F 34.0 °F 68% 30.13 in 10.0 mi ENE 8.1 mph - N/A   Overcast
2:53 AM 44.1 °F 38.1 °F 33.1 °F 65% 30.11 in 10.0 mi ENE 11.5 mph - N/A   Overcast
3:53 AM 44.1 °F 37.7 °F 33.1 °F 65% 30.12 in 10.0 mi ENE 12.7 mph - N/A   Overcast
4:53 AM 44.1 °F 37.7 °F 32.0 °F 63% 30.12 in 10.0 mi ENE 12.7 mph - N/A   Overcast
5:53 AM 43.0 °F 36.0 °F 32.0 °F 65% 30.11 in 10.0 mi ENE 13.8 mph 20.7 mph N/A   Overcast
6:53 AM 43.0 °F 34.5 °F 32.0 °F 65% 30.12 in 10.0 mi East 19.6 mph 24.2 mph N/A   Overcast
7:53 AM 43.0 °F 35.1 °F 32.0 °F 65% 30.11 in 10.0 mi East 17.3 mph 28.8 mph N/A   Overcast
8:53 AM 44.1 °F 35.7 °F 33.1 °F 65% 30.10 in 10.0 mi East 20.7 mph 32.2 mph N/A   Overcast
9:53 AM 44.1 °F 35.4 °F 30.9 °F 60% 30.10 in 10.0 mi East 21.9 mph 29.9 mph 0.00 in   Overcast
10:53 AM 45.0 °F 35.6 °F 30.9 °F 58% 30.06 in 10.0 mi East 27.6 mph 38.0 mph 0.00 in   Overcast
11:53 AM 41.0 °F 30.5 °F 30.9 °F 67% 30.01 in 10.0 mi East 26.5 mph 36.8 mph N/A   Overcast
12:16 PM 39.2 °F 27.8 °F 33.8 °F 81% 30.00 in 3.0 mi ESE 27.6 mph 35.7 mph 0.02 in Rain Rain
12:24 PM 39.2 °F 29.3 °F 35.6 °F 87% 29.99 in 3.0 mi East 20.7 mph 35.7 mph 0.05 in Rain Rain
12:32 PM 39.2 °F 28.3 °F 35.6 °F 87% 29.99 in 3.0 mi East 25.3 mph 38.0 mph 0.06 in Rain Rain
12:50 PM 39.2 °F 28.0 °F 35.6 °F 87% 29.98 in 3.0 mi East 26.5 mph 41.4 mph 0.08 in Rain Rain
12:53 PM 39.9 °F 29.0 °F 35.1 °F 83% 29.98 in 3.0 mi East 26.5 mph 36.8 mph 0.08 in Rain Light Rain
12:55 PM 39.2 °F 27.4 °F 35.6 °F 87% 29.98 in 3.0 mi East 29.9 mph 38.0 mph 0.00 in Rain Light Rain
1:53 PM 41.0 °F 30.7 °F 36.0 °F 82% 29.94 in 3.0 mi ESE 25.3 mph 40.3 mph 0.04 in Rain Light Rain
1:55 PM 41.0 °F 29.8 °F 35.6 °F 81% 29.94 in 1.5 mi ESE 29.9 mph 40.3 mph 0.00 in Rain Rain
2:30 PM 41.0 °F 30.9 °F 37.4 °F 87% 29.92 in 3.0 mi East 24.2 mph 35.7 mph 0.01 in Rain Light Rain
2:53 PM 41.0 °F 29.8 °F 37.9 °F 89% 29.90 in 3.0 mi ESE 29.9 mph 38.0 mph 0.02 in Rain Light Rain
3:23 PM 41.0 °F 31.1 °F 37.4 °F 87% 29.87 in 3.0 mi ESE 23.0 mph 29.9 mph 0.02 in Rain Light Rain
3:53 PM 42.1 °F 33.3 °F 39.0 °F 89% 29.83 in 1.2 mi East 19.6 mph 29.9 mph 0.10 in Rain Light Rain
4:18 PM 42.8 °F 35.8 °F 39.2 °F 87% 29.83 in 3.0 mi East 13.8 mph 26.5 mph 0.02 in Rain Light Rain
4:25 PM 42.8 °F 34.3 °F 39.2 °F 87% 29.82 in 2.0 mi East 19.6 mph 25.3 mph 0.05 in Rain Heavy Rain
4:53 PM 43.0 °F 34.8 °F 41.0 °F 93% 29.80 in 2.0 mi East 18.4 mph 24.2 mph 0.14 in Rain Rain
5:27 PM 44.6 °F 37.8 °F 42.8 °F 93% 29.78 in 1.2 mi ENE 15.0 mph 21.9 mph 0.17 in Rain Heavy Rain
5:53 PM 45.0 °F 38.2 °F 42.1 °F 90% 29.78 in 2.0 mi NE 15.0 mph 19.6 mph 0.26 in Rain Rain
6:35 PM 46.4 °F 41.9 °F 42.8 °F 87% 29.75 in 8.0 mi East 9.2 mph - 0.03 in   Overcast
6:53 PM 48.0 °F - 46.0 °F 93% 29.73 in 2.5 mi East 11.5 mph - 0.05 in Rain Rain
7:02 PM 48.2 °F - 46.4 °F 93% 29.73 in 3.0 mi East 10.4 mph - 0.03 in Rain Rain
7:10 PM 48.2 °F - 48.2 °F 100% 29.72 in 2.5 mi ENE 5.8 mph - 0.04 in Rain Light Rain
7:17 PM 48.2 °F - 48.2 °F 100% 29.72 in 5.0 mi ENE 5.8 mph - 0.04 in Rain Light Rain
7:29 PM 50.0 °F - 48.2 °F 94% 29.71 in 6.0 mi East 6.9 mph - 0.04 in Rain Light Rain
7:42 PM 50.0 °F - 48.2 °F 94% 29.71 in 1.8 mi ESE 6.9 mph - 0.12 in Rain Heavy Rain
7:49 PM 51.8 °F - 48.2 °F 88% 29.70 in 3.0 mi ESE 8.1 mph - 0.14 in Rain Rain
7:50 PM 51.8 °F - 48.2 °F 88% 29.70 in 2.5 mi ESE 8.1 mph - 0.14 in Rain Rain
7:53 PM 51.1 °F - 48.9 °F 92% 29.70 in 2.5 mi ESE 6.9 mph - 0.15 in Rain Rain
8:38 PM 51.8 °F - 50.0 °F 94% 29.67 in 0.8 mi East 3.5 mph - 0.06 in   Mist
8:53 PM 52.0 °F - 50.0 °F 93% 29.69 in 1.0 mi WNW 4.6 mph - 0.23 in Rain Heavy Rain
9:05 PM 51.8 °F - 51.8 °F 100% 29.68 in 2.0 mi Calm Calm - 0.06 in Rain Rain
9:14 PM 51.8 °F - 50.0 °F 94% 29.67 in 1.8 mi ENE 3.5 mph - 0.12 in Rain Rain
9:23 PM 51.8 °F - 51.8 °F 100% 29.67 in 2.5 mi Calm Calm - 0.14 in Rain Light Rain
9:51 PM 53.6 °F - 51.8 °F 94% 29.65 in 1.2 mi SSE 6.9 mph - 0.20 in Rain Rain
9:53 PM 53.1 °F - 52.0 °F 96% 29.66 in 1.2 mi SSE 6.9 mph - 0.21 in Rain Rain
10:11 PM 51.8 °F - 50.0 °F 94% 29.66 in 0.8 mi South 6.9 mph - 0.05 in Rain Rain
10:22 PM 51.8 °F - 48.2 °F 88% 29.66 in 0.8 mi SSW 9.2 mph - 0.06 in Rain Light Rain
10:34 PM 51.8 °F - 48.2 °F 88% 29.65 in 0.8 mi WSW 6.9 mph - 0.07 in Rain Light Rain
10:43 PM 51.8 °F - 48.2 °F 88% 29.66 in 1.0 mi West 10.4 mph - 0.07 in Rain Light Rain
10:53 PM 48.0 °F - 46.9 °F 96% 29.66 in 2.5 mi NW 10.4 mph - 0.07 in   Overcast
11:07 PM 46.4 °F 40.7 °F 44.6 °F 93% 29.66 in 1.8 mi NNW 12.7 mph - N/A   Overcast
11:14 PM 46.4 °F 41.1 °F 44.6 °F 93% 29.66 in 3.0 mi NNW 11.5 mph - N/A   Overcast
11:25 PM 44.6 °F 38.4 °F 42.8 °F 93% 29.64 in 1.8 mi NNW 12.7 mph - N/A   Overcast
11:41 PM 44.6 °F 38.1 °F 44.6 °F 100% 29.65 in 0.5 mi NNW 13.8 mph - N/A Fog Fog
11:53 PM 45.0 °F 38.9 °F 43.0 °F 93% 29.65 in 0.5 mi NNW 12.7 mph - N/A Fog Fog